TimeMDT,TemperatureF,Dew PointF,Humidity,Sea Level PressureIn,VisibilityMPH,Wind Direction,Wind SpeedMPH,Gust SpeedMPH,PrecipitationIn,Events,Conditions,WindDirDegrees,DateUTC
12:56 AM,51.1,39.0,63,29.93,-9999.0,NNW,18.4,27.6,N/A,,Unknown,330,2012-10-14 06:56:00
1:56 AM,51.1,39.0,63,29.98,-9999.0,NNW,17.3,-,N/A,,Unknown,330,2012-10-14 07:56:00
2:56 AM,51.1,39.9,66,30.01,-9999.0,NNW,13.8,-,N/A,,Unknown,340,2012-10-14 08:56:00
3:56 AM,48.9,39.9,71,30.03,-9999.0,NNW,11.5,-,N/A,,Unknown,330,2012-10-14 09:56:00
4:56 AM,48.9,39.9,71,30.06,-9999.0,NNW,13.8,-,N/A,,Unknown,330,2012-10-14 10:56:00
5:56 AM,46.9,39.0,74,30.11,-9999.0,NW,9.2,-,N/A,,Unknown,320,2012-10-14 11:56:00
6:56 AM,43.0,37.9,82,30.16,-9999.0,NW,6.9,-,N/A,,Unknown,310,2012-10-14 12:56:00
7:56 AM,48.9,39.9,71,30.18,-9999.0,NW,10.4,-,N/A,,Unknown,320,2012-10-14 13:56:00
8:56 AM,55.9,41.0,57,30.19,-9999.0,NW,12.7,-,N/A,,Unknown,320,2012-10-14 14:56:00
9:56 AM,60.1,42.1,51,30.19,-9999.0,NNW,13.8,-,N/A,,Unknown,340,2012-10-14 15:56:00
10:56 AM,63.0,43.0,48,30.18,-9999.0,North,15.0,-,N/A,,Unknown,350,2012-10-14 16:56:00
11:56 AM,64.9,41.0,42,30.16,-9999.0,North,11.5,-,N/A,,Unknown,350,2012-10-14 17:56:00
12:56 PM,68.0,39.0,35,30.13,-9999.0,North,12.7,-,N/A,,Unknown,10,2012-10-14 18:56:00
1:56 PM,68.0,36.0,31,30.11,-9999.0,NNW,4.6,-,N/A,,Unknown,340,2012-10-14 19:56:00
2:56 PM,69.1,35.1,29,30.09,-9999.0,NW,3.5,-,N/A,,Unknown,320,2012-10-14 20:56:00
3:56 PM,69.1,35.1,29,30.08,-9999.0,NNW,5.8,-,N/A,,Unknown,330,2012-10-14 21:56:00
4:56 PM,68.0,34.0,28,30.07,-9999.0,Calm,Calm,-,N/A,,Unknown,0,2012-10-14 22:56:00
5:56 PM,63.0,39.9,43,30.09,-9999.0,ESE,3.5,-,N/A,,Unknown,110,2012-10-14 23:56:00
6:56 PM,55.0,43.0,64,30.13,-9999.0,SE,5.8,-,N/A,,Unknown,140,2012-10-15 00:56:00
7:56 PM,54.0,39.9,59,30.12,-9999.0,SSE,6.9,-,N/A,,Unknown,160,2012-10-15 01:56:00
8:56 PM,54.0,39.9,59,30.12,-9999.0,SSE,4.6,-,N/A,,Unknown,160,2012-10-15 02:56:00
9:56 PM,53.1,39.0,59,30.10,-9999.0,Calm,Calm,-,N/A,,Unknown,0,2012-10-15 03:56:00
10:56 PM,46.9,39.9,77,30.11,-9999.0,WSW,4.6,-,N/A,,Unknown,240,2012-10-15 04:56:00
11:56 PM,46.0,39.9,79,30.09,-9999.0,WSW,5.8,-,N/A,,Unknown,240,2012-10-15 05:56:00